Regional Weather Roundup
Issued by NWS Lake Charles, LA

Home | Current Version | Previous Version | Text Only | Print | Product List | Glossary On
Versions: 1 2 3 4 5 6 7 8 9 10 11 12 13 14 15 16 17 18 19 20 21 22 23 24 25 26 27 28 29 30 31 32 33 34 35 36 37 38 39 40 41 42 43 44 45 46 47 48 49 50
988
ASUS44 KLCH 292310
RWRLCH
REGIONAL WEATHER ROUNDUP
NATIONAL WEATHER SERVICE LAKE CHARLES LA
600 PM CDT SAT APR 29 2017

Note: "fair" indicates few or no clouds below 12,000 feet with no
significant weather and/or obstructions to visibility.


ACROSS SOUTHEAST TEXAS

CITY           SKY/WX    TMP DP  RH WIND       PRES   REMARKS
BEAUMONT       CLOUDY    81  74  79 SE26G39   29.66S
BEAUMONT CITY  CLOUDY    81  74  80 SE17G26   29.67S
ORANGE         CLOUDY    80  75  86 SE14G23   29.70S HAZE
JASPER         DRIZZLE   78  76  92 S7        29.66F
$$

ACROSS CENTRAL LOUISIANA

CITY           SKY/WX    TMP DP  RH WIND       PRES   REMARKS
LEESVILLE      CLOUDY    77  73  88 SE20G30   29.68F
FULLERTON      CLOUDY    78  74  87 SE6       29.68F
ALEXANDRIA INT CLOUDY    82  72  71 SE24G33   29.70F
ESLER FIELD    CLOUDY    83  73  72 SE12      29.73F
DERIDDER       CLOUDY    77  76  95 SE9G17    29.71F FOG
OAKDALE        CLOUDY    81  73  77 SE8G18    29.73F
OPELOUSAS      CLOUDY    82  72  70 SE17G30   29.76F
$$

ACROSS SOUTHWEST AND SOUTH CENTRAL LOUISIANA

CITY           SKY/WX    TMP DP  RH WIND       PRES   REMARKS
SULPHUR        CLOUDY    81  75  82 SE21G30   29.72S
LAKE CHARLES   CLOUDY    80  74  81 S20G33    29.71F
CHENNAULT INT    N/A     66  63  88 SE21G30   29.71F
CAMERON PHI    CLOUDY    79  75  89 SE18G28   29.69S FOG
DEQUINCY       CLOUDY    79  73  80 SE20G29   29.70S
JENNINGS       CLOUDY    81  73  78 SE21G29   29.73F
LAFAYETTE      CLOUDY    85  74  69 SE16G25   29.77F
NEW IBERIA     LGT RAIN  83  72  69 SE29G38   29.78F
ABBEVILLE      CLOUDY    79  79 100 SE21G31   29.77F
PATTERSON      CLOUDY    81  75  82 SE20G25   29.81F
SALT POINT       N/A     81  74  79 SE18G29   29.78F
$$

SELECTED SITES ACROSS THE REGION

CITY           SKY/WX    TMP DP  RH WIND       PRES   REMARKS
HOUSTON BUSH   CLOUDY    83  74  74 SE24G32   29.61S HAZE
HOUSTON HOBBY  CLOUDY    81  74  79 SE18G29   29.60F
GALVESTON      CLOUDY    82  77  84 SE22G30   29.63F HAZE
COLLEGE STAT   CLOUDY    84  75  74 S18G29    29.55S HAZE
CONROE         CLOUDY    82  74  76 S21G29    29.59F
HUNTSVILLE     CLOUDY    82  74  76 S15G26    29.56F HAZE
LUFKIN         LGT RAIN  76  75  97 SE17G25   29.59F FOG
SHREVEPORT     CLOUDY    77  70  79 SE18      29.63F
MONROE         CLOUDY    68  65  90 E8        29.74F
NATCHEZ MS     NOT AVBL
BATON ROUGE    PTSUNNY   85  71  63 SE21G35   29.81F
N.O. INTL ARPT PTSUNNY   82  74  76 SE17G28   29.87F
SLIDELL        CLOUDY    80  74  81 SE16G24   29.90F
$$

MARINE REPORTS

STATION/POSITION TIME  SKY/WX   TEMP    WIND        PRES    VSBY
                                AIR SEA DIR/SP/G
                 (UTC)          (F)     (DEG/KT/KT) (MB)    (MI)
BUOY 30 S HIGH I 2150            78 76  150/ 19/ 23 1003.4
WVE H/P(F/S)=  8/ 9

SEA RIM ST PARK  2300            78     150/ 17/ 21 1005.5R
PORT ARTHUR      2248            79 76  150/ 16/ 22 1005.0F
SABINE PASS N    2248            79 79  140/ 19/ 25 1006.2R
TEXAS POINT      NOT AVBL
CALCASIEU PASS   2248            78 79  160/ 20/ 26   N/A
LK CHARLES BEACH 2248            80 75              1006.2F
MARSH ISLAND     2200            78                   N/A
FRESH WATER LOCK 2248            79 80  120/ 19/ 26 1007.4F
AMERADA PASS     2248            80 74  130/ 11/ 21 1009.2F
$$




USA.gov is the U.S. government's official web portal to all federal, state and local government web resources and services.